This is the latest recevied weather packets stored in our database for station/object M0TUM-1. If no packets are shown the sender has not sent any weather packets the latest 10 day(s).
| Time | Temp. | Humidity | Pressure | Rain* | Wind** | Luminosity | Snow |
|---|---|---|---|---|---|---|---|
| 1787746016 | 23.89° C | 60% | 1014.5 hPa | 0 mm | - | 615 W/m² | - |
| 1787745715 | 22.78° C | 64% | 1014.5 hPa | 0 mm | - | 649 W/m² | - |
| 1787745414 | 22.78° C | 62% | 1014.4 hPa | 0 mm | - | 178 W/m² | - |
| 1787745114 | 23.33° C | 61% | 1014.4 hPa | 0 mm | - | 663 W/m² | - |
| 1787744810 | 23.89° C | 61% | 1014.5 hPa | 0 mm | - | 192 W/m² | - |
| 1787744506 | 23.89° C | 60% | 1014.7 hPa | 0 mm | - | 205 W/m² | - |
| 1787744201 | 23.89° C | 61% | 1014.5 hPa | 0 mm | - | 264 W/m² | - |
| 1787743897 | 24.44° C | 58% | 1014.4 hPa | 0 mm | - | 321 W/m² | - |
| 1787743596 | 24.44° C | 56% | 1014.4 hPa | 0 mm | - | 530 W/m² | - |
| 1787743292 | 24.44° C | 57% | 1014.4 hPa | 0 mm | - | 615 W/m² | - |
| 1787742988 | 23.89° C | 58% | 1014.5 hPa | 0 mm | - | 200 W/m² | - |
| 1787742684 | 24.44° C | 57% | 1014.7 hPa | 0 mm | - | 638 W/m² | - |
| 1787742383 | 24.44° C | 57% | 1014.6 hPa | 0 mm | - | 654 W/m² | - |
| 1787742080 | 23.89° C | 57% | 1014.6 hPa | 0 mm | - | 215 W/m² | - |
| 1787741775 | 25° C | 58% | 1014.7 hPa | 0 mm | - | 638 W/m² | - |
| 1787741471 | 24.44° C | 58% | 1014.7 hPa | 0 mm | - | 399 W/m² | - |
| 1787741170 | 23.89° C | 60% | 1014.8 hPa | 0 mm | - | 674 W/m² | - |
| 1787740869 | 23.33° C | 60% | 1014.6 hPa | 0 mm | - | 675 W/m² | - |
| 1787740569 | 23.33° C | 59% | 1014.6 hPa | 0 mm | - | 146 W/m² | - |
| 1787740264 | 23.33° C | 60% | 1014.6 hPa | 0 mm | - | 477 W/m² | - |
| 1787739959 | 23.89° C | 60% | 1014.5 hPa | 0 mm | - | 609 W/m² | - |
| 1787739655 | 23.33° C | 60% | 1014.7 hPa | 0 mm | - | 632 W/m² | - |
| 1787739351 | 23.33° C | 63% | 1014.9 hPa | 0 mm | - | 631 W/m² | - |
| 1787739046 | 23.33° C | 61% | 1014.8 hPa | 0 mm | - | 554 W/m² | - |
| 1787738742 | 23.33° C | 61% | 1014.9 hPa | 0 mm | - | 212 W/m² | - |
* Rain latest hour (hover to see other rain measurements)
** Current wind speed in m/s (hover to see current wind gust speed)